www.pogodaiklimat.ru

Погода и климат >> Архив погоды >> Аргентина >> Ресистенсия


ПОГОДА в Ресистенсии

  • Прогноз погоды в Ресистенсии
  • Монитор погоды в Ресистенсии

АРХИВ ПОГОДЫ в Ресистенсии

Время (UTC), дата Ветер
(напр.,м/с)
 
Видим.   Явления Облачность Т
(С)
Тd
(С)
f
(%)
Тe
(С)
Тes
(С)
Комфортность P
(гПа)
Po
(гПа)
Тmin
(С)
Tmax
(С)
R
(мм)
R24
(мм)
S
(см)
15 14.08 В 4 15 км 8/0
[Cs]
+13.0 +0.8 43 +12 +19 1033.0 1026.5
18 14.08 В 3 15 км 8/0
[Cs]
+15.8 +0.7 36 +16 +22 1028.6 1022.2
21 14.08 В 3 15 км 8/0
[Cs]
+14.1 +0.9 41 +13 +14 1026.7 1020.4
00 15.08 В 3 15 км ясно +9.0 +3.2 67 +7 +7 1025.5 1019.2 +6.9 +16.0
03 15.08 ЮВ 1 15 км 5/0
[Ci fib]
+5.0 +5.0 100 +3 +3 1024.6 1018.2
06 15.08 ЮЗ 1 15 км 4/0
[Ci fib]
+3.5 +3.5 100 +2 +2 1023.0 1016.6
09 15.08 ЮВ 1 15 км 3/0
[Cs]
+4.0 +3.5 97 +2 +2 1021.7 1015.3
12 15.08 В 3 8000 м дымка 4/0
[Ci fib]
+9.3 +6.8 84 +7 +9 1023.0 1016.6 +1.7 +9.4
15 15.08 СВ 3 10 км дым 3/0
[Ci fib]
+20.2 +5.6 38 +21 +30 комфорт 1021.7 1015.4
18 15.08 СВ 5 15 км дым 5/0
[Ci fib]
+24.0 +6.3 32 +24 +29 комфорт 1018.6 1012.2
21 15.08 В 5 7000 м дым 8/0
[Cs]
+21.0 +10.7 52 +23 +23 комфорт 1017.4 1011.0
00 16.08 В 3 7000 м дым 6/0
[Cs]
+17.5 +12.1 71 +17 +17 1017.4 1011.0 +9.2 +24.9
03 16.08 В 2 8000 м дым ясно +16.2 +11.8 75 +16 +16 1017.1 1010.9
06 16.08 В 2 8000 м дым 8/0
[Ac und Cs]
+15.6 +12.2 80 +15 +15 1015.5 1009.4
09 16.08 В 2 6000 м дым 9/0
[Ac und Cs]
+15.4 +12.7 84 +15 +15 1013.7 1007.6
12 16.08 СВ 4 4000 м дым 9/0
[Ac und Cs]
+18.1 +13.6 75 +18 +19 1015.0 1008.8 +14.8 +18.1
15 16.08 С 8 5000 м дым 9/0
[Ac und Cs]
+26.3 +14.4 48 +29 +30 жарко 1013.8 1007.7
18 16.08 С 8 7000 м дым 8/0
[Cs]
+29.9 +14.7 40 +32 +34 жарко 1010.2 1004.2
21 16.08 СВ 4 5000 м дым 6/0
[Cs]
+29.8 +15.8 43 +33 +33 душно 1008.9 1002.9
00 17.08 В 3 5000 м дым 6/0
[Cs]
+23.3 +16.5 66 +28 +28 душно 1008.3 1002.2 +17.7 +31.2
03 17.08 В 3 10 км дым ясно +20.8 +15.9 74 +25 +25 комфорт 1008.7 1002.6
06 17.08 В 4 10 км дым ясно +20.0 +15.0 73 +22 +22 комфорт 1007.0 1001.0
09 17.08 В 4 15 км ясно +18.6 +13.0 70 +19 +19 1006.4 1000.4
12 17.08 СВ 4 6000 м мгла туман 8/0
[Cs]
+19.4 +12.7 65 +21 +22 комфорт 1008.1 1002.1 +16.0 +23.5
15 17.08 С 7 6000 м мгла туман 8/0
[Cs]
+27.8 +12.1 38 +29 +32 жарко 1007.8 1001.8
18 17.08 С 4 7000 м дым 10/0
[Cs]
+30.9 +13.2 34 +32 +37 жарко 1004.2 998.2
21 17.08 С 1 4000 м дым 10/0
[Cs]
+28.1 +15.9 47 +31 +31 душно 1005.1 999.0
00 18.08 Ю 3 10 км дым 6/0
[Cs]
+23.1 +15.2 61 +27 +27 душно 1008.1 1002.1 +19.4 +30.9
03 18.08 ЮЗ 3 15 км 9/0
[Cs]
+19.1 +15.9 82 +21 +21 комфорт 1009.9 1003.8
06 18.08 Ю 6 15 км 9/0
[Cs]
+19.0 +16.5 85 +20 +20 1011.5 1005.4
09 18.08 Ю 5 15 км 9/1 1300 м
[Sc Cs]
+15.2 +13.1 87 +14 +14 1012.1 1006.0
12 18.08 Ю 6 15 км 10/0
[Cs]
+14.6 +11.7 83 +13 +14 1014.7 1008.6 +13.5 +23.1
15 18.08 Ю 7 15 км 10/0
[Cs]
+17.2 +10.1 63 +16 +19 1017.8 1011.6
18 18.08 Ю 7 10 км дым 10/0
[Ac und Cs]
+19.8 +8.9 49 +20 +22 1017.9 1011.8
21 18.08 Ю 6 10 км дым 10/0
[Cs]
+18.3 +7.3 49 +18 +18 1018.7 1012.5
00 19.08 Ю 4 15 км 10/0
[Cs]
+14.7 +7.3 61 +14 +14 1021.2 1014.9 +14.4 +20.5
03 19.08 Ю 5 15 км 8/0
[Cs]
+13.0 +7.3 68 +11 +11 1023.1 1016.8
06 19.08 Ю 4 15 км 8/0
[Cs]
+9.7 +7.6 87 +7 +7 1023.9 1017.6
09 19.08 Ю 4 15 км 4/0
[Cs]
+8.5 +6.8 89 +5 +5 1023.2 1016.9
12 19.08 Ю 1 15 км ясно +10.2 +7.1 81 +10 +13 1024.1 1017.8 +7.1 +14.7
15 19.08 Ю 4 15 км ясно +15.8 +7.2 57 +15 +23 1025.2 1018.9
18 19.08 Ю 4 15 км ясно +18.8 +4.9 40 +19 +25 1022.9 1016.6
21 19.08 Ю 5 15 км 1/0
[Ci sp]
+17.0 +5.0 45 +16 +17 1022.0 1015.7
00 20.08 Ю 3 15 км ясно +11.0 +5.9 71 +9 +9 1022.8 1016.4 +10.1 +19.4
03 20.08 Ю 3 15 км ясно +8.8 +6.7 87 +7 +7 1023.6 1017.3
06 20.08 Ю 3 15 км ясно +6.5 +5.1 91 +3 +3 1024.2 1018.0
09 20.08 Ю 3 15 км ясно +4.8 +3.6 92 +1 +1 1024.4 1018.0
12 20.08 ЮВ 3 15 км ясно +9.3 +5.6 78 +7 +10 1025.1 1018.8 +3.0 +11.0
15 20.08 ЮВ 3 15 км 1/0
[Cs]
+17.2 +5.0 44 +17 +29 опасность
простуды
1026.0 1019.7
18 20.08 ЮВ 3 8000 м дым ясно +21.7 +3.3 30 +22 +30 комфорт 1024.1 1017.8
21 20.08 Ю 3 8000 м дым ясно +19.8 +4.4 36 +21 +21 комфорт 1023.6 1017.3
00 21.08 Ю 3 15 км ясно +13.0 +6.4 64 +12 +12 1025.2 1018.8 +9.2 +22.5
03 21.08 ЮВ 3 15 км ясно +11.4 +6.4 71 +10 +10 1025.5 1019.2
06 21.08 ЮВ 3 15 км ясно +10.0 +7.9 87 +8 +8 1024.3 1018.0
09 21.08 ЮВ 2 15 км ясно +9.5 +6.3 80 +8 +8 1023.7 1017.4
12 21.08 ЮВ 3 8000 м дымка ясно +11.3 +7.2 76 +10 +12 1025.6 1019.2 +7.3 +13.0

 

Местоположение метеостанции Ресистенсия (Аргентина): широта -27.45 долгота -59.05 высота над уровнем моря 52 м.

В архиве по умолчанию представлена погода в Ресистенсии за последнюю неделю. Архивные данные за месяц целиком и за предыдущие месяцы, начиная с января 2011 года, Вы можете получить, выбрав интересующий диапазон дат из раскрывающегося списка и нажав кнопку "Ввод!".


*Определитесь, кто Вы:
робот инопланетянин человек

Внимание! Время в таблицах - всемирное. Для получения местного времени необходимо прибавить поправку, которая равна -3 ч.

Смотрите также архив погоды в соседних городах и на ближайших метеорологических станциях:

Погода в Корриентесе (Аргентина) (29 км)
Погода в Пиларе (Парагвай) (99 км)
Погода в Формосе (Аргентина) (161 км)
Погода в Пресиденсиа-Роке-Саэнс-Пеньи (Аргентина) (163 км)
Погода в Реконкисте (Аргентина) (203 км)
Погода в Сан Хуан Батистута (Парагвай) (208 км)
Погода в Куйкуйо (Парагвай) (247 км)
Погода в Парагуари (Парагвай) (278 км)
Погода в Асунсьоне (Парагвай) (289 км)
Погода в Грал Бругуез (Парагвай) (300 км)

Пояснения к столбцам:

Ветер - указаны скорость ветра в м/с - средняя за 10 мин, порывы в срок и между сроками (в фигурных скобках) и направление, откуда дует ветер: С - северный, СВ - северо-восточный, В - восточный, ЮВ - юго-восточный, Ю - южный, ЮЗ - юго-западный, З - западный, СЗ - северо-западный.
Видимость - горизонтальная дальность видимости в метрах или километрах. При видимости от 1 до 10 км при отсутствии осадков обычно наблюдается дымка, при ухудшении видимости до 1 км и менее - туман. В сухую погоду видимость может ухудшаться дымом, пылью или мглою.
Явления - указаны атмосферные явления, наблюдавшиеся в срок или в последний час перед сроком; фигурными скобками обозначены явления, наблюдавшиеся между сроками (за 1-3 часа до срока); квадратными скобками обозначены град или гололедные отложения с указанием их диаметра в мм.
Облачность - указаны через наклонную черту общая и нижняя облачность в баллах и высота нижней границы облаков в метрах; квадратными скобками обозначены формы облаков: Ci - перистые, Cs - перисто-слоистые, Cc - перисто-кучевые, Ac - высококучевые, As - высокослоистые, Sc - слоисто-кучевые, Ns - слоисто-дождевые, Cu - кучевые, Cb - кучево-дождевые. Подробнее классификацию облаков см. в Атласе облаков (PDF).
T - Температура воздуха - температура, измеренная на высоте 2 м над землей.
Td - Температура точки росы - температура, при понижении до которой содержащийся в воздухе водяной пар достигнет насыщения.
f - Относительная влажность воздуха - влажноcть воздуха, измеренная на высоте 2 м над землей.
Te - Эффективная температура - температура, которую ощущает одетый по сезону человек в тени. Характеристика душности погоды. При расчете учитывается влияние влажности воздуха и скорости ветра на теплоощущения человека.
Tes - Эффективная температура на солнце - температура, которую ощущает человек, с поправкой на солнечный нагрев. Характеристика знойности погоды. Зависит от высоты солнца над горизонтом, облачности и скорости ветра. Ночью, в пасмурную погоду, а также при ветре 12 м/с и более поправка равна нулю.
P - Атмосферное давление - приведенное к уровню моря атмосферное давление.
Po - Атмосферное давление - измеренное на уровне метеостанции атмосферное давление.
Tmin - Минимальная температура - минимум температуры воздуха на высоте 2 м над землей.
Tmax - Максимальная температура - максимум температуры воздуха на высоте 2 м над землей.
R - Количество осадков - Количество выпавших осадков за период времени, мм. При наведении курсора мыши на число - период времени, за который выпало указанное количество осадков.
R24 - Количество осадков - Количество выпавших осадков за 24 часа, мм.
S - Снежный покров - Высота снежного покрова, см. При наведении курсора мыши на число - состояние снежного покрова и степень покрытия местности в баллах.